| time (UTC) | temp F | wind direction | speed MPH | gust MPH | rain 1hr in | rain 24hr in | rain mn in | humidity % | barometer mb |
| 20260505020005 | 77 | 299 | 0.0 | 8.0 | 0.00 | 0.00 | 0.00 | 36 | 1006.9 |
| 20260505014509 | 79 | 240 | 0.0 | 6.0 | 0.00 | 0.00 | 0.00 | 35 | 1006.9 |
| 20260505013003 | 81 | 128 | 1.0 | 7.0 | 0.00 | 0.00 | 0.00 | 29 | 1006.7 |
| 20260505011501 | 80 | 4 | 1.0 | 8.0 | 0.00 | 0.00 | 0.00 | 30 | 1006.7 |
| 20260505010103 | 81 | 98 | 1.0 | 6.0 | 0.00 | 0.00 | 0.00 | 28 | 1006.8 |
| 20260505004600 | 81 | 45 | 4.0 | 9.0 | 0.00 | 0.00 | 0.00 | 26 | 1006.7 |
| 20260505003057 | 84 | 278 | 1.0 | 8.0 | 0.00 | 0.00 | 0.00 | 24 | 1006.7 |
| 20260505001554 | 82 | 66 | 4.0 | 12.0 | 0.00 | 0.00 | 0.00 | 23 | 1006.6 |
| 20260505000056 | 83 | 89 | 2.0 | 9.0 | 0.00 | 0.00 | 0.00 | 24 | 1006.7 |
| 20260504234614 | 84 | 245 | 1.0 | 7.0 | 0.00 | 0.00 | 0.00 | 23 | 1006.5 |
| 20260504233052 | 84 | 206 | 2.0 | 10.0 | 0.00 | 0.00 | 0.00 | 26 | 1006.6 |
| 20260504231554 | 83 | 343 | 3.0 | 12.0 | 0.00 | 0.00 | 0.00 | 24 | 1006.6 |
| 20260504230046 | 82 | 151 | 3.0 | 11.0 | 0.00 | 0.00 | 0.00 | 24 | 1006.8 |
| 20260504224546 | 83 | 233 | 4.0 | 9.0 | 0.00 | 0.00 | 0.00 | 22 | 1006.9 |
| 20260504223045 | 82 | 40 | 7.0 | 14.0 | 0.00 | 0.00 | 0.00 | 22 | 1006.9 |
| 20260504221552 | 83 | 314 | 5.0 | 11.0 | 0.00 | 0.00 | 0.00 | 20 | 1006.9 |
| 20260504220043 | 84 | 137 | 4.0 | 11.0 | 0.00 | 0.00 | 0.00 | 21 | 1006.9 |
| 20260504214546 | 82 | 213 | 3.0 | 14.0 | 0.00 | 0.00 | 0.00 | 25 | 1007.0 |
| 20260504213039 | 83 | 219 | 3.0 | 8.0 | 0.00 | 0.00 | 0.00 | 22 | 1007.0 |
| 20260504211539 | 82 | 64 | 5.0 | 10.0 | 0.00 | 0.00 | 0.00 | 22 | 1007.2 |
| 20260504210040 | 82 | 22 | 3.0 | 9.0 | 0.00 | 0.00 | 0.00 | 22 | 1007.1 |
| 20260504204612 | 82 | 268 | 2.0 | 4.0 | 0.00 | 0.00 | 0.00 | 22 | 1007.1 |
| 20260504203035 | 82 | 77 | 3.0 | 10.0 | 0.00 | 0.00 | 0.00 | 24 | 1007.2 |
| 20260504201532 | 81 | 37 | 2.0 | 13.0 | 0.00 | 0.00 | 0.00 | 24 | 1007.3 |
| 20260504200036 | 81 | 89 | 1.0 | 8.0 | 0.00 | 0.00 | 0.00 | 25 | 1007.7 |
| 20260504194528 | 81 | 230 | 3.0 | 7.0 | 0.00 | 0.00 | 0.00 | 28 | 1007.8 |
| 20260504193026 | 80 | 212 | 3.0 | 7.0 | 0.00 | 0.00 | 0.00 | 28 | 1007.9 |
| 20260504191522 | 80 | 194 | 1.0 | 4.0 | 0.00 | 0.00 | 0.00 | 30 | 1008.1 |
| 20260504190019 | 78 | 226 | 1.0 | 8.0 | 0.00 | 0.00 | 0.00 | 30 | 1008.5 |
| 20260504184516 | 78 | 215 | 3.0 | 6.0 | 0.00 | 0.00 | 0.00 | 34 | 1008.6 |
| 20260504183011 | 75 | 118 | 0.0 | 2.0 | 0.00 | 0.00 | 0.00 | 37 | 1008.8 |
| 20260504181510 | 73 | 87 | 2.0 | 4.0 | 0.00 | 0.00 | 0.00 | 37 | 1008.9 |
| 20260504180004 | 72 | 216 | 0.0 | 4.0 | 0.00 | 0.00 | 0.00 | 41 | 1009.2 |
| 20260504174600 | 70 | 27 | 0.0 | 2.0 | 0.00 | 0.00 | 0.00 | 43 | 1009.4 |
| 20260504173056 | 69 | 241 | 1.0 | 4.0 | 0.00 | 0.00 | 0.00 | 44 | 1009.5 |
| 20260504171552 | 67 | 154 | 0.0 | 3.0 | 0.00 | 0.00 | 0.00 | 44 | 1009.7 |
| 20260504081536 | 48 | 143 | 0.0 | 0.0 | 0.00 | 0.00 | 0.00 | 82 | 1010.8 |
| 20260504050018 | 57 | 143 | 0.0 | 0.0 | 0.00 | 0.00 | 0.00 | 69 | 1010.3 |
| 20260504044523 | 59 | 143 | 0.0 | 0.0 | 0.00 | 0.00 | 0.00 | 68 | 1010.2 |
| 20260504043018 | 60 | 142 | 0.0 | 0.0 | 0.00 | 0.00 | 0.00 | 66 | 1010.0 |
| 20260504041516 | 61 | 141 | 0.0 | 0.0 | 0.00 | 0.00 | 0.00 | 66 | 1010.0 |
| 20260504040022 | 62 | 141 | 0.0 | 0.0 | 0.00 | 0.00 | 0.00 | 60 | 1009.8 |
| 20260504034516 | 65 | 141 | 0.0 | 0.0 | 0.00 | 0.00 | 0.00 | 56 | 1009.6 |
| 20260504033016 | 67 | 141 | 0.0 | 0.0 | 0.00 | 0.00 | 0.00 | 52 | 1009.4 |
| 20260504031515 | 69 | 141 | 0.0 | 5.0 | 0.00 | 0.00 | 0.00 | 50 | 1009.2 |
| 20260504030020 | 71 | 228 | 0.0 | 5.0 | 0.00 | 0.00 | 0.00 | 45 | 1009.1 |
| 20260504024514 | 74 | 251 | 1.0 | 5.0 | 0.00 | 0.00 | 0.00 | 37 | 1009.0 |
| 20260504023013 | 74 | 229 | 0.0 | 4.0 | 0.00 | 0.00 | 0.00 | 35 | 1008.9 |
| 20260504021512 | 74 | 90 | 0.0 | 6.0 | 0.00 | 0.00 | 0.00 | 38 | 1008.9 |